Location: Cazarilh
(42.9578°N, 0.5819°E)
Time: 06:41:42
(UTC+00:00)

STARLINK 1046 - Pass Details

Date: 11 December 2019
Orbit: 548 x 551 km, 53.0° (Epoch: 17 January)

Event Time Altitude Azimuth Distance (km) Brightness Sun altitude
Exits shadow 03:53:57 13° 78° (ENE) 1,675 6.8 -36.5°
Drops below altitude 10° 03:54:29 10° 82° (E) 1,850 7.0 -36.4°
Enters shadow 04:55:05 -63° 299° (WNW) 11,999 10.4 -25.3°
Maximum altitude 05:30:46 73° 219° (SW) 590 3.6 -18.9°
